RH
41 43 42 44 52 62 73 81 87 94 96 96 98 100 100 100 100 101 101 100 100 102 101 102 102 101 104 107 106 103 101 100 101 100 98 97 95 91 91 92 90 89 91 95 97 96 93 90 85 76 63 50 41 36 34 33 34 34 34 36 37 38 38 37 36 34 34 34 34 35 36 36 36 36 36 37 37 37 38 38 39 40 41 43 43 43
39 43 46 55 68 78 86 90 92 96 97 97 99 100 100 101 101 100 100 101 103 103 103 105 104 105 108 106 100 99 101 103 105 106 106 103 96 91 90 89 86 86 88 91 90 88 85 80 72 62 49 40 36 34 35 35 35 36 37 39 39 37 35 34 34 34 35 36 36 37 37 37 37 38 38 38 39 39 40 40 41 43 43 44 44 44
49 60 67 79 88 91 95 98 95 96 99 99 100 100 101 101 100 100 101 102 104 103 103 104 103 104 107 104 101 100 102 105 105 106 106 101 96 94 93 89 86 85 87 88 87 82 76 69 60 50 41 37 37 36 36 36 38 40 41 40 37 34 33 34 35 36 37 38 38 38 39 39 39 40 40 40 41 41 41 42 43 44 45 45 45 44
78 84 88 97 101 99 101 102 97 96 100 101 100 101 101 101 101 102 102 102 104 103 101 100 99 102 105 105 104 102 103 107 106 105 102 99 99 97 93 92 93 95 95 92 86 77 66 56 47 41 38 37 37 38 39 41 42 41 39 36 34 35 36 37 38 38 39 40 40 41 42 43 44 44 44 44 44 44 43 44 44 45 45 45 45 44
93 92 96 101 101 99 99 100 99 99 100 101 100 101 101 101 101 101 101 100 99 98 97 95 97 101 104 105 104 102 105 107 104 101 100 103 105 102 101 103 103 99 92 81 69 58 48 42 39 38 38 38 39 40 41 41 40 37 35 35 37 39 39 40 41 42 43 44 45 46 47 48 48 48 48 47 46 45 44 44 45 46 46 46 46 45
91 93 98 100 99 100 100 100 100 100 101 100 100 99 100 101 101 99 97 94 93 96 96 97 99 100 102 105 103 102 105 103 100 99 102 107 107 105 104 100 91 78 64 54 47 42 40 39 39 39 40 40 40 40 39 37 36 36 38 41 42 44 45 47 48 49 49 50 50 51 51 50 50 50 50 49 47 46 44 44 45 46 47 47 47 48
92 97 100 101 100 100 100 100 100 100 101 101 101 100 100 99 96 94 93 93 96 99 100 102 104 101 101 103 101 99 100 98 96 97 99 101 100 97 89 77 65 53 45 42 40 39 39 38 38 39 39 39 39 39 39 39 41 43 45 47 49 51 52 53 54 54 53 52 52 51 50 50 49 50 51 51 50 48 46 45 45 46 47 48 49 50
97 100 101 102 102 102 103 103 103 102 104 104 103 100 96 95 94 94 95 98 100 102 102 101 98 95 96 100 101 101 102 101 99 99 95 90 85 74 62 52 45 41 40 40 39 38 38 37 38 39 39 41 42 43 45 46 49 50 52 54 55 56 56 56 55 53 52 51 50 49 48 48 49 50 53 54 52 50 48 48 48 49 49 50 51 53
97 102 104 105 104 104 105 104 103 103 104 103 100 98 96 96 98 98 100 103 103 101 99 96 94 96 100 102 104 104 104 105 102 95 86 74 62 50 41 39 39 40 40 38 38 38 39 41 42 43 45 46 48 50 51 53 54 55 56 57 58 57 56 55 54 53 51 50 49 48 47 48 49 50 53 54 53 51 50 51 52 52 52 53 54 56
94 99 102 101 99 99 99 99 99 100 101 100 100 100 99 100 102 102 103 102 98 94 95 100 102 105 109 105 98 96 93 90 83 73 64 54 44 38 37 39 41 41 39 39 41 43 44 45 46 48 49 51 53 54 55 57 57 58 58 58 58 58 57 56 56 55 53 51 50 49 48 47 49 51 54 54 53 52 52 52 52 52 53 54 57 61
87 88 88 89 92 97 98 98 99 100 100 100 101 102 103 104 103 100 96 93 93 97 103 106 104 105 108 99 85 81 77 68 60 51 45 40 37 38 39 40 40 39 40 42 44 45 46 48 50 52 53 55 56 56 57 58 59 59 60 61 61 61 61 60 58 56 54 52 50 48 47 47 48 51 53 54 54 55 54 53 53 53 54 57 61 65
82 82 81 86 93 98 99 99 101 102 102 104 105 104 104 102 96 93 94 96 101 104 101 98 94 94 95 85 72 66 56 46 43 40 37 37 37 39 40 40 40 41 43 44 45 47 50 52 53 53 54 54 55 55 55 56 57 59 60 61 62 63 62 60 57 55 53 50 48 46 44 45 46 49 50 52 54 54 53 53 53 55 57 61 63 65
73 75 78 85 92 95 96 96 95 96 96 97 96 93 92 90 87 90 95 96 95 91 86 83 80 76 73 64 55 48 39 35 36 35 36 38 39 40 40 41 43 44 45 46 47 48 49 48 49 49 50 51 51 51 51 52 54 57 60 63 65 65 63 60 57 54 51 48 45 43 43 44 47 49 51 52 52 51 51 51 54 57 60 61 61 60
66 70 70 74 80 81 82 82 82 83 83 85 88 89 92 90 86 85 85 83 80 76 74 71 62 54 50 44 39 36 34 35 35 36 38 39 40 41 42 44 44 44 45 45 46 46 45 46 47 47 48 48 48 49 50 53 57 61 65 67 68 67 64 60 56 53 49 46 42 41 43 46 50 52 53 52 50 50 52 55 57 59 59 58 56 53
61 71 70 67 69 67 67 70 72 75 75 77 81 83 83 80 73 69 64 61 59 54 54 51 43 38 36 34 33 33 35 37 38 39 40 40 42 43 44 45 45 47 49 49 49 49 49 48 47 47 48 50 53 55 57 60 64 66 67 67 67 64 61 56 52 49 45 42 40 43 47 51 53 54 53 53 55 57 60 61 61 59 56 52 47 41
44 58 62 63 63 59 59 60 61 65 66 66 68 67 66 62 56 51 45 40 38 36 37 37 34 33 32 33 34 36 39 42 42 43 45 47 49 49 48 50 52 54 54 53 53 53 52 52 53 55 58 61 63 63 63 62 62 62 62 62 61 58 54 51 47 43 40 40 44 49 52 53 52 52 54 58 62 65 65 62 59 55 50 43 35 28
32 42 46 47 48 47 47 49 50 53 54 52 51 49 47 43 39 37 35 33 31 31 32 32 33 33 34 35 37 40 43 43 44 47 53 57 59 58 59 59 59 58 58 60 61 61 60 60 62 63 63 63 62 59 58 57 55 55 54 53 52 51 48 45 41 40 42 46 51 52 52 51 52 55 57 59 61 61 60 58 54 48 39 30 24 19
27 35 39 37 36 35 35 36 36 37 37 36 34 33 31 31 31 31 31 31 31 32 34 35 37 37 38 40 40 41 41 41 44 48 53 58 61 62 62 61 60 61 62 63 62 59 56 56 58 59 58 56 54 53 52 51 50 50 50 49 47 45 42 40 42 45 49 51 51 51 52 55 57 57 55 54 53 52 51 49 44 36 27 21 17 15
23 28 32 32 30 29 28 29 30 30 30 30 30 30 31 31 32 32 33 33 34 36 37 40 43 44 44 44 40 38 41 46 50 54 58 63 64 63 62 61 60 59 57 55 52 51 52 54 57 56 54 52 51 50 49 50 51 51 49 46 42 40 40 44 47 48 49 49 51 55 57 58 58 55 53 50 46 41 36 32 27 22 18 16 15 14
24 26 29 30 29 30 29 29 30 31 31 32 33 34 35 37 37 37 37 37 37 39 42 44 46 45 44 44 42 44 49 55 59 62 65 66 64 62 60 57 55 52 50 50 50 53 56 58 57 54 52 51 52 53 54 53 51 47 42 40 40 43 45 47 48 48 50 53 56 57 58 57 57 56 53 46 37 28 21 17 16 15 15 14 13 13
27 28 30 32 32 32 33 33 35 36 36 38 40 41 43 44 43 42 43 44 46 47 47 45 43 39 39 43 46 48 51 54 57 59 58 57 56 56 55 53 52 51 53 56 59 61 60 58 55 54 55 56 57 55 51 46 43 41 41 43 45 46 47 48 50 52 53 54 54 54 54 53 51 45 38 29 22 17 14 13 13 12 13 12 12 11
30 31 33 34 35 35 35 35 37 39 40 42 44 46 47 48 48 48 48 50 52 52 49 46 44 42 42 45 48 48 48 49 50 50 50 52 54 55 56 55 56 58 61 64 64 62 59 57 57 58 57 54 50 45 41 41 43 45 47 48 48 49 51 52 53 52 52 51 49 46 41 35 29 23 18 16 14 13 13 12 11 11 11 11 10 10
28 30 33 35 37 38 38 40 42 44 46 48 51 54 57 57 54 49 45 45 47 50 51 49 48 47 45 45 47 49 49 48 48 49 51 53 55 56 58 59 60 62 62 61 60 58 58 58 56 52 47 42 41 41 44 47 49 51 52 53 54 55 55 53 52 50 46 41 34 27 21 17 14 13 13 12 12 12 11 11 10 10 9 9 9 9
30 35 40 48 55 55 54 55 58 60 60 62 67 69 67 61 54 46 40 39 42 52 62 65 68 68 62 60 64 65 63 60 58 59 60 60 61 60 59 58 57 57 57 57 58 57 55 51 46 42 41 43 46 49 51 52 53 54 55 54 53 51 49 47 42 36 29 22 18 15 13 12 12 11 11 11 11 10 10 9 9 9 9 9 9 9
43 44 47 55 63 66 66 67 71 73 71 67 65 62 58 56 54 53 56 63 69 75 80 80 80 79 72 70 75 75 70 68 66 65 62 60 59 57 56 56 56 58 58 57 55 50 46 44 44 46 49 51 53 53 53 53 53 52 50 48 45 41 36 30 24 19 15 14 13 12 12 11 11 11 10 10 10 9 9 8 8 8 8 8 8 8
53 50 46 45 46 50 56 60 64 68 67 63 60 61 66 72 75 77 81 87 89 88 84 78 74 73 70 70 74 72 69 69 68 68 68 67 66 65 66 67 66 64 59 54 50 47 47 50 52 54 55 55 54 52 51 49 47 45 42 38 32 25 20 16 14 13 13 13 12 11 11 11 10 10 9 9 9 8 8 8 7 7 7 7 7 7
53 47 40 36 32 32 37 41 43 48 53 58 63 69 77 84 86 85 84 83 81 80 80 74 68 67 68 69 73 74 75 76 78 81 85 84 82 79 75 70 64 58 53 51 51 52 53 55 54 54 53 51 50 48 46 43 39 34 28 22 18 15 14 13 13 12 12 12 11 11 10 10 9 9 8 8 8 8 7 7 7 7 6 6 6 6
45 41 35 31 27 26 29 33 39 48 55 60 64 66 69 72 73 73 71 70 69 70 71 70 67 68 72 78 82 84 86 87 87 86 83 78 72 66 61 57 54 54 55 55 55 54 52 51 49 48 48 46 45 41 36 30 24 18 15 14 13 13 12 12 11 11 10 10 9 9 8 8 8 7 7 7 7 7 7 7 6 6 6 6 6 5
38 35 33 35 32 29 35 42 52 66 72 69 66 63 62 64 67 69 70 72 75 77 79 82 83 84 88 92 92 88 83 78 71 65 60 56 54 53 54 56 57 58 57 55 52 50 48 46 45 44 41 36 31 25 20 16 14 13 13 12 11 11 10 10 9 9 8 8 8 7 7 7 7 7 7 6 6 6 6 6 5 5 5 5 5 5
34 34 42 54 55 51 57 67 74 84 88 84 78 73 72 75 78 82 86 89 93 94 93 91 88 85 83 82 78 71 64 57 53 52 54 56 58 60 61 60 58 55 52 50 48 46 44 40 36 30 25 20 16 13 12 12 12 11 10 10 9 9 8 8 7 7 7 7 7 7 7 6 6 6 6 6 5 5 5 5 5 4 4 4 4 4
36 43 54 72 81 76 78 87 93 98 101 100 95 89 88 92 93 94 94 94 94 92 87 82 77 75 74 71 70 69 66 63 63 64 65 64 63 61 57 54 51 49 47 44 41 36 31 25 20 16 13 12 11 11 11 10 9 9 8 8 8 7 7 7 7 7 6 6 6 6 5 5 5 5 5 5 5 5 4 4 4 4 4 4 4 4
44 53 63 81 92 87 83 86 92 97 101 102 98 92 92 94 91 86 82 79 77 74 70 67 66 69 72 74 78 81 79 75 69 64 60 56 53 51 49 46 43 39 35 30 24 20 16 14 13 12 12 11 10 10 9 9 8 8 7 7 7 7 6 6 6 5 5 5 5 5 5 4 5 5 5 5 5 4 4 4 4 4 4 4 4 4
52 58 65 76 84 82 79 81 86 92 97 97 90 84 82 80 74 69 67 68 69 68 66 65 67 71 72 73 73 72 68 62 56 51 48 45 43 40 37 33 27 22 18 15 13 12 12 12 11 11 10 9 9 8 8 7 7 7 6 6 6 6 5 5 5 5 5 5 5 5 5 5 5 5 5 5 5 5 5 4 4 4 4 4 4 4
53 57 62 71 80 84 85 86 86 84 82 77 70 69 73 73 70 67 69 73 76 75 71 68 67 66 62 59 55 52 50 47 45 43 39 34 29 25 20 17 14 13 13 12 12 12 11 10 9 9 8 8 7 7 6 6 6 6 6 5 5 5 5 5 5 4 4 5 5 5 5 5 5 5 5 5 5 4 4 4 4 4 4 4 4 4
62 64 65 69 74 75 73 73 74 75 75 74 72 77 82 80 75 72 71 72 71 68 64 60 57 53 49 46 44 43 42 41 37 32 26 20 16 14 13 13 13 14 13 12 11 10 9 9 8 7 7 7 6 6 6 5 5 5 5 5 4 4 4 4 4 5 5 5 5 5 5 5 5 4 4 4 4 4 4 4 4 4 3 3 4 3
60 59 58 60 64 69 72 76 79 83 84 82 81 82 82 77 72 68 65 63 60 55 51 48 45 43 41 40 38 35 32 28 24 19 16 14 14 15 15 15 14 13 12 10 9 9 8 7 7 7 6 6 6 5 5 5 5 5 5 5 4 4 5 5 5 5 4 4 4 4 4 4 4 4 4 4 4 4 4 3 3 3 3 3 3 3
64 66 69 73 76 80 84 85 82 81 79 76 74 74 71 66 61 56 52 49 45 42 41 40 39 38 36 32 27 22 19 17 16 17 17 18 19 18 17 15 13 11 10 9 9 8 7 7 6 6 6 5 5 4 4 4 4 4 5 5 5 5 5 5 4 4 4 4 4 4 4 3 3 3 3 3 3 3 3 3 3 3 2 3 2 2
82 82 81 81 79 78 79 78 75 74 71 67 63 59 55 51 47 43 41 40 39 39 39 37 33 28 23 19 17 15 15 16 18 19 19 19 18 16 14 12 11 10 10 9 8 7 7 6 6 5 5 4 4 4 4 4 5 5 5 5 5 5 4 4 4 4 4 3 3 3 3 3 3 3 3 3 3 3 3 3 3 3 2 2 2 2
84 81 79 78 76 73 72 69 65 61 56 52 49 48 46 45 42 41 41 40 39 37 33 28 23 19 17 16 16 16 16 16 16 16 16 15 14 12 11 10 9 9 8 8 7 6 6 5 5 5 5 5 5 5 5 5 5 4 4 4 4 4 4 4 3 3 3 3 3 3 2 2 3 2 2 3 3 3 3 3 3 3 3 3 2 3
81 79 76 72 68 63 59 55 52 49 47 46 45 45 44 43 42 43 41 37 32 27 23 20 18 18 18 17 16 16 15 14 13 12 11 11 10 9 8 8 7 7 7 6 6 6 6 6 5 5 5 5 6 6 5 5 5 4 4 4 4 3 3 3 3 3 2 2 2 2 3 2 3 3 3 3 3 3 3 3 3 3 3 3 3 2
73 69 65 60 56 53 52 51 50 48 47 46 44 44 44 44 42 39 33 26 21 19 18 17 17 17 17 16 15 14 13 12 11 10 9 9 8 8 7 7 7 6 6 5 5 5 6 6 6 6 6 6 5 5 5 5 4 4 3 3 3 3 3 2 2 2 2 2 2 2 3 2 3 3 3 3 3 3 3 3 3 3 3 3 3 3
61 57 55 54 54 53 53 53 51 48 46 45 45 45 43 38 32 26 22 20 18 17 16 16 15 15 15 14 13 13 12 12 11 10 9 8 7 7 7 7 6 6 6 6 6 6 6 7 7 6 6 5 5 5 4 4 4 3 3 3 3 3 2 2 2 2 2 2 2 2 3 3 3 3 3 3 3 3 3 3 3 3 3 3 3 3
55 55 55 55 55 54 53 50 47 46 45 44 42 38 31 26 22 20 19 18 16 15 15 15 15 14 14 14 14 13 12 11 9 9 8 8 7 7 6 7 6 6 7 6 6 6 6 7 7 6 6 5 4 4 3 3 3 3 2 2 2 2 3 3 3 3 2 2 3 3 2 2 2 3 3 3 3 3 3 3 3 3 3 3 3 3
58 58 58 56 52 50 48 46 45 44 40 33 28 23 20 18 18 16 15 15 15 15 16 16 16 15 15 14 13 11 10 9 8 8 8 7 7 7 7 7 7 7 7 7 7 7 6 6 6 5 5 4 4 3 3 2 3 3 3 3 3 3 3 3 3 3 3 2 2 2 2 2 2 3 2 2 3 3 3 3 3 3 3 3 3 3
60 58 56 53 49 47 47 46 41 34 27 21 18 17 16 16 16 15 15 16 16 17 17 17 16 15 14 12 10 9 9 8 8 8 7 7 7 7 7 7 7 7 7 7 7 6 6 5 5 5 4 4 3 3 3 2 3 3 3 3 3 3 3 3 3 3 2 2 2 2 3 2 2 2 2 2 2 3 2 3 3 3 3 3 3 3
58 54 51 50 48 45 41 34 27 22 19 18 18 18 18 18 18 19 19 20 19 18 17 16 14 13 11 10 9 8 8 7 7 7 7 7 7 7 7 8 7 7 7 6 6 6 5 5 5 4 3 3 3 3 3 3 3 3 3 3 3 3 3 3 3 3 2 2 3 2 2 3 2 2 2 2 2 2 3 3 3 2 3 3 3 3
51 50 49 47 42 36 29 23 20 20 20 19 19 20 20 21 22 22 21 20 19 16 14 13 12 11 10 9 8 8 8 7 7 7 7 7 7 7 8 8 8 7 6 6 5 5 5 4 4 3 3 3 3 3 3 3 3 3 3 3 3 3 3 3 2 3 3 2 2 2 2 2 2 2 2 2 2 2 2 3 3 2 3 3 3 3
48 46 42 36 29 24 21 20 20 21 22 22 23 24 24 25 24 22 20 17 15 14 13 12 11 9 8 8 8 8 8 7 7 7 7 7 7 7 8 7 7 6 6 6 5 4 4 3 3 3 3 3 3 4 4 3 3 3 3 3 3 3 3 3 2 2 2 2 2 2 2 2 2 2 2 2 2 2 2 3 3 3 3 3 3 3
41 35 29 24 21 21 21 22 23 24 26 26 26 26 26 24 22 19 16 15 14 13 12 11 9 8 7 7 8 8 8 8 8 7 7 7 7 7 7 7 6 6 6 5 4 4 3 3 3 3 3 3 3 4 3 3 3 3 3 3 3 3 3 3 3 2 2 2 2 2 2 2 2 2 2 2 2 3 3 2 2 3 3 3 3 3
27 23 21 21 22 23 23 23 23 23 24 24 23 22 21 18 16 15 13 13 12 11 10 9 9 8 8 7 8 8 8 8 8 8 8 8 7 7 6 6 6 6 5 4 4 4 3 3 3 3 3 3 3 3 3 3 3 3 3 3 3 3 3 3 3 2 2 2 2 2 2 2 2 2 2 2 2 2 3 3 2 3 3 3 3 3
21 20 21 22 23 23 23 22 22 22 22 21 19 17 15 14 13 12 12 11 11 10 9 8 8 8 8 8 8 8 7 7 8 8 8 7 6 6 6 6 5 4 4 4 3 3 4 4 4 4 4 4 3 3 3 3 3 3 3 3 3 3 3 3 2 2 2 2 2 2 2 2 2 2 2 2 2 2 3 3 2 3 3 3 3 3
Wind_Speed
53 54 55 52 49 47 45 44 43 42 43 45 47 48 50 54 56 58 59 59 59 59 60 63 63 64 67 71 74 77 79 79 78 79 79 80 80 80 78 77 76 75 75 75 77 79 81 81 81 80 78 78 77 77 77 77 77 77 77 76 76 75 73 71 68 66 65 65 65 66 67 67 68 69 71 72 73 74 75 76 77 78 78 79 80 81
49 50 51 48 44 43 42 44 45 46 47 49 51 52 55 57 57 58 59 60 61 61 63 65 66 67 71 74 76 77 77 77 78 79 80 80 80 79 78 78 78 78 78 78 79 80 81 81 80 79 78 78 78 78 78 78 78 77 77 76 74 71 68 66 65 65 66 67 68 69 70 70 71 72 73 75 76 77 77 78 79 81 82 82 83 85
45 45 46 43 41 41 42 43 45 47 50 51 51 53 55 58 58 59 61 63 64 64 65 68 68 71 74 75 75 75 76 78 79 80 81 81 81 79 78 78 78 79 79 80 81 81 81 80 80 79 79 79 79 78 78 78 78 77 75 72 69 66 65 65 66 67 69 70 71 72 73 74 75 76 77 78 79 80 80 81 83 84 85 86 87 88
40 42 42 40 41 43 44 46 46 48 51 52 53 55 58 60 61 62 63 65 66 67 68 70 71 72 74 74 74 76 78 79 80 81 82 82 80 79 78 79 79 80 81 81 81 81 80 79 79 79 79 79 79 78 78 77 75 73 70 68 66 66 67 68 69 70 72 73 74 75 76 77 78 79 80 81 82 83 84 85 86 87 88 89 91 92
40 41 41 42 44 45 46 48 49 50 53 55 56 58 60 62 63 64 66 67 68 70 71 71 71 72 73 75 77 78 78 79 80 82 82 81 80 79 79 80 81 81 80 80 79 79 79 78 78 78 78 78 77 75 74 71 69 68 67 67 68 69 70 71 73 74 75 76 77 79 80 81 82 83 84 85 86 86 87 88 89 90 92 93 94 96
42 43 42 43 45 46 46 48 51 53 54 57 59 61 62 64 66 68 69 70 70 71 71 72 73 73 77 79 77 77 78 79 80 81 80 80 80 80 81 81 80 79 78 77 77 78 78 78 78 78 76 74 72 70 68 67 67 67 68 69 71 72 74 75 77 78 79 80 82 83 84 85 86 86 88 89 89 90 91 91 92 93 95 96 98 100
44 44 44 45 47 48 50 52 54 56 57 60 63 65 66 68 69 70 70 70 69 69 70 74 77 77 79 80 78 78 79 79 79 79 79 79 80 80 80 79 78 77 76 76 77 77 76 75 73 71 69 68 67 66 67 67 68 69 71 73 74 76 77 79 81 82 83 85 86 87 88 89 90 91 91 93 94 95 96 96 96 97 98 99 101 103
46 47 48 50 51 53 55 57 59 60 62 64 66 68 68 68 68 68 68 69 69 71 74 79 80 78 78 81 80 79 78 77 77 78 79 79 79 79 78 77 76 76 76 75 74 72 69 67 65 64 64 65 66 67 68 70 71 73 75 76 78 80 81 83 85 86 88 89 90 91 93 93 94 95 95 96 98 99 100 100 101 102 102 103 105 106
50 51 52 54 55 57 59 61 62 64 64 65 66 67 67 67 67 68 69 71 74 75 77 79 80 80 81 81 80 77 75 75 76 77 77 77 77 76 76 75 75 75 74 71 68 65 63 62 62 63 64 66 68 69 71 73 75 76 78 80 82 84 86 87 89 90 92 93 94 95 96 97 98 99 99 100 101 103 103 104 105 106 107 108 109 111
53 54 56 57 58 59 61 61 62 63 63 64 65 66 67 68 69 72 73 75 76 76 77 79 81 82 81 79 77 75 75 75 75 75 75 75 76 75 75 74 74 73 69 65 63 62 62 63 65 66 68 69 70 72 74 76 78 80 82 84 86 88 89 91 93 94 96 97 98 99 100 101 102 102 103 104 105 107 108 108 109 110 111 112 114 115
54 56 57 57 57 58 59 60 61 62 63 65 66 68 70 72 74 75 76 76 76 77 78 80 80 79 79 78 76 75 74 74 73 74 74 75 75 74 74 72 70 67 64 63 63 64 65 67 68 70 71 72 74 75 77 79 81 83 85 87 89 91 93 95 96 98 99 101 102 103 104 105 105 106 107 108 109 111 112 113 114 115 116 117 118 119
55 57 57 57 58 59 60 61 62 64 66 68 70 72 73 75 75 75 76 77 78 78 78 78 77 76 77 77 76 75 74 72 72 73 73 73 73 73 71 68 65 64 64 65 66 67 69 71 72 73 75 76 78 79 81 82 84 86 88 90 92 95 97 98 100 102 103 105 106 107 108 108 109 110 110 111 113 114 116 117 118 119 120 121 122 123
55 57 58 59 61 62 64 65 66 68 69 71 72 73 74 74 75 75 76 78 78 77 75 74 74 75 75 75 75 75 74 73 72 72 72 72 71 69 66 65 64 65 67 68 69 71 72 74 75 77 79 80 82 83 85 87 88 90 92 94 96 99 101 103 104 106 108 109 110 110 111 112 112 113 114 115 117 118 119 120 121 123 124 125 126 127
56 58 59 60 62 64 65 66 67 68 69 71 72 74 75 76 75 75 75 75 74 73 72 73 73 73 74 75 74 74 73 72 72 71 71 70 67 65 64 65 67 68 70 71 73 75 76 77 79 81 83 85 86 88 89 91 92 94 96 98 100 103 105 107 109 110 112 113 113 114 114 115 116 117 118 120 122 123 124 125 126 127 128 128 129 129
55 58 60 62 63 65 65 66 68 69 70 71 72 74 75 75 73 72 70 70 69 69 70 72 73 72 73 73 72 72 72 72 72 71 70 67 65 65 66 68 70 71 73 75 77 79 80 81 83 85 87 89 91 92 94 95 97 99 101 102 104 107 109 111 112 114 115 115 116 116 117 118 119 120 122 124 126 128 130 130 131 132 132 131 130 128
52 57 59 62 64 65 65 66 67 68 69 69 70 70 70 70 70 69 69 69 68 67 68 70 71 71 70 70 70 70 70 71 70 68 67 66 67 68 70 71 73 75 77 79 81 82 84 86 88 90 92 93 95 97 98 100 101 103 104 106 108 110 112 114 116 117 117 117 117 118 120 121 123 124 125 127 129 131 134 135 136 136 134 132 130 127
47 51 54 57 59 60 61 62 63 64 65 65 66 66 67 67 67 68 67 68 68 66 66 68 69 69 68 67 68 69 69 68 66 65 65 67 69 71 73 75 77 79 81 83 85 86 88 90 92 95 96 98 99 101 103 104 106 107 108 110 111 114 116 117 118 119 119 120 121 122 124 126 127 128 129 130 132 133 135 137 137 137 135 132 129 125
45 47 51 54 56 57 57 58 60 61 62 63 63 64 64 65 65 66 65 66 66 65 65 66 68 69 67 67 67 66 65 64 63 64 67 70 72 75 77 79 80 82 84 86 88 90 92 94 97 99 101 102 104 105 107 109 110 111 113 114 116 117 118 119 120 121 122 123 124 126 128 130 132 134 134 135 135 135 135 135 134 133 132 130 127 124
46 46 51 55 56 57 57 58 59 60 61 62 62 63 64 64 64 65 65 65 64 64 64 65 67 68 67 66 64 62 61 62 64 67 70 73 75 78 80 82 84 86 88 90 92 94 96 99 101 103 105 106 108 110 112 113 114 116 118 119 120 120 120 121 122 124 125 127 129 130 133 135 137 138 139 139 137 135 133 131 128 126 125 124 123 121
48 47 50 54 56 56 57 58 58 59 60 61 61 62 63 64 65 65 66 66 65 64 64 64 66 65 63 62 62 61 62 64 67 70 73 76 79 82 84 86 88 90 92 94 96 98 101 103 105 107 109 111 113 115 116 117 119 121 122 122 122 123 123 125 127 129 130 131 133 135 137 139 141 142 142 141 138 135 131 126 122 120 119 119 119 118
51 50 50 54 56 56 57 58 58 58 59 60 61 61 63 64 64 65 65 66 65 65 64 64 63 62 60 60 62 63 65 68 71 74 77 80 83 86 88 90 92 94 96 99 101 103 105 108 109 111 113 115 117 119 120 121 122 123 124 125 126 127 128 130 132 134 135 136 138 139 140 140 140 139 137 135 132 130 127 124 120 117 115 115 114 114
52 52 53 55 56 57 57 58 57 57 58 59 59 60 61 62 63 63 63 64 64 63 62 61 61 60 60 62 65 67 69 72 75 78 81 84 87 89 92 94 95 97 100 102 105 107 110 111 113 115 117 119 120 121 122 123 124 126 128 129 131 132 134 136 137 139 140 141 141 140 138 136 133 131 128 126 125 124 123 121 118 115 113 112 111 111
52 52 53 54 55 56 57 57 57 56 57 58 59 60 61 62 63 63 62 61 60 60 60 61 62 63 63 65 69 72 75 77 79 82 85 87 90 93 95 97 99 101 104 107 109 111 114 116 117 119 120 121 123 124 125 126 128 130 132 134 136 137 139 140 142 142 142 140 138 135 132 129 126 124 122 121 120 119 118 117 115 113 111 110 109 109
52 52 52 54 56 57 56 56 57 57 57 58 58 60 62 62 61 61 59 58 58 59 61 63 66 69 70 70 73 77 80 82 84 87 89 92 94 97 99 101 103 106 108 111 113 115 118 120 121 122 123 124 126 128 129 131 133 135 137 138 140 141 142 142 141 139 137 134 131 128 126 124 122 120 118 117 116 115 114 113 112 111 110 108 107 107
54 54 54 54 56 58 57 57 57 57 58 58 58 59 59 59 58 57 57 58 59 61 64 66 68 73 75 76 78 82 85 87 90 93 95 97 100 101 103 105 108 111 113 116 118 119 121 123 124 125 127 128 131 132 134 136 138 139 140 141 142 141 140 137 135 132 130 127 125 123 122 121 119 117 116 114 113 113 112 111 110 108 107 105 104 104
56 56 56 55 55 56 56 55 55 54 55 55 54 54 54 55 56 56 57 59 61 64 68 70 71 74 78 81 84 87 89 92 95 98 101 104 106 107 109 111 114 117 119 121 122 123 124 125 127 129 131 133 135 137 138 140 141 141 141 140 139 137 134 131 129 127 125 124 122 120 119 118 117 116 114 113 112 110 110 109 107 105 104 102 101 101
56 56 56 55 54 53 52 52 51 50 50 51 51 52 53 54 56 58 60 63 65 68 72 75 76 77 81 84 88 91 94 97 99 102 105 108 110 112 114 117 119 121 122 123 124 125 127 129 131 133 135 137 139 141 142 142 141 139 136 134 132 130 128 126 124 122 121 120 119 118 116 115 114 113 111 110 109 107 107 107 105 103 101 100 98 98
55 54 53 52 52 50 49 49 48 48 49 51 52 54 55 58 60 63 65 67 70 73 76 79 82 83 85 88 92 95 98 101 103 106 109 111 113 114 116 118 120 122 124 126 128 130 132 133 135 137 139 140 141 141 139 137 135 132 130 127 125 123 122 120 119 117 116 115 115 114 113 112 111 110 109 107 106 104 104 104 104 102 99 97 96 96
51 50 49 50 50 48 47 47 48 50 52 54 56 58 60 62 65 68 70 73 76 78 80 83 86 88 90 93 97 100 103 105 107 110 112 113 115 116 118 121 123 126 128 130 132 134 136 138 139 140 139 138 136 134 131 128 125 124 122 120 119 118 117 116 114 113 112 111 111 110 109 109 108 107 107 106 105 103 102 101 101 99 96 94 93 92
48 47 46 47 49 49 48 49 51 53 57 59 62 63 65 68 70 72 75 78 81 84 86 88 91 93 96 99 101 104 107 109 111 113 115 117 118 120 123 126 128 130 133 134 136 137 138 138 137 135 133 130 127 124 121 119 117 116 115 114 114 113 112 112 111 110 110 109 108 108 107 106 105 104 104 103 103 101 99 98 97 96 94 91 89 88
46 46 46 47 49 50 51 52 54 57 60 64 66 68 70 72 75 77 79 82 85 88 91 93 95 98 100 103 105 108 111 113 115 118 120 122 123 126 128 130 132 134 135 136 136 135 133 131 128 126 123 121 118 116 115 113 112 111 110 110 110 109 108 108 108 107 107 106 105 105 104 102 101 101 101 101 100 99 97 96 95 94 92 90 87 85
46 46 47 48 51 53 54 55 58 60 64 67 70 72 74 77 79 82 84 86 89 92 94 96 97 99 102 104 107 110 113 117 120 123 125 126 128 130 132 134 134 134 132 130 127 125 123 120 119 117 116 115 114 112 111 110 109 108 108 108 107 107 106 105 105 104 104 104 103 103 102 101 99 99 98 98 98 97 96 94 93 92 90 88 86 84
47 48 49 51 54 57 59 60 62 64 68 71 74 76 78 81 83 85 87 89 92 95 96 98 100 102 105 107 109 112 115 119 123 127 129 130 130 131 131 130 129 126 123 120 117 116 114 113 113 112 112 111 109 108 107 107 106 106 106 105 105 104 103 102 102 102 101 101 100 100 99 98 96 95 95 94 94 93 93 92 91 89 88 86 84 83
49 50 52 54 57 60 63 65 67 69 72 75 77 79 81 84 86 87 89 92 95 98 100 102 105 107 110 113 115 116 119 122 125 128 129 129 127 125 122 120 118 117 115 114 113 112 111 110 109 108 107 107 106 105 105 104 104 103 103 102 101 100 99 98 98 97 97 96 95 95 94 93 92 91 90 90 89 89 89 89 88 87 86 84 82 81
51 53 55 57 60 62 65 67 70 72 75 78 79 81 84 87 89 90 92 96 99 103 105 108 111 113 116 118 119 121 121 123 125 126 125 123 121 119 116 114 113 112 112 112 110 109 108 107 106 106 106 106 105 104 103 102 102 101 101 100 99 97 95 94 93 92 92 91 91 90 89 89 87 87 86 85 85 85 85 85 85 84 83 82 80 78
54 56 58 59 61 64 67 69 71 74 77 80 82 85 89 92 94 95 97 100 105 107 109 112 114 117 119 120 120 120 119 118 119 120 119 118 118 117 116 114 112 110 110 109 109 108 108 106 106 106 105 104 103 102 101 100 100 99 98 97 96 94 92 91 90 89 88 87 87 86 85 84 83 82 82 81 81 81 82 82 82 82 81 79 77 75
56 59 60 62 64 67 70 73 75 78 81 83 86 89 93 96 99 100 101 104 107 110 112 114 116 117 118 118 117 116 114 113 114 116 117 117 116 116 114 113 112 110 110 109 109 109 108 106 105 104 103 102 100 99 98 96 96 95 94 94 93 91 90 89 88 86 85 84 84 83 82 81 80 79 79 79 78 78 79 80 80 80 79 76 74 72
60 62 64 67 69 71 74 77 80 82 85 88 91 94 98 101 104 106 107 109 112 113 114 115 115 115 115 114 113 113 112 110 109 110 110 110 110 111 110 110 111 111 111 110 108 106 105 105 104 102 101 99 97 96 95 93 92 91 91 91 90 89 87 87 86 85 84 83 82 81 80 78 78 77 76 76 76 75 75 76 77 77 76 74 71 70
64 67 69 72 74 76 79 82 85 88 90 93 96 100 104 107 109 111 112 114 115 115 115 114 114 113 113 112 111 111 110 107 103 102 102 103 104 106 107 107 107 108 108 107 105 103 102 102 101 100 99 97 95 93 92 91 90 89 89 88 88 87 86 85 84 84 83 81 80 79 78 76 75 74 73 72 72 71 71 72 73 74 73 71 69 67
69 72 75 77 80 82 85 88 91 94 97 99 101 105 108 111 113 114 114 114 113 113 112 111 111 110 110 109 107 106 105 104 101 99 100 101 103 104 105 104 104 103 103 103 102 101 100 99 99 98 97 95 93 92 91 90 89 88 88 87 86 85 83 82 82 81 79 78 76 75 74 73 72 70 69 68 68 67 68 68 68 69 70 70 67 64
73 76 79 82 85 88 91 94 97 100 102 105 106 109 111 113 113 113 113 111 109 108 108 107 106 105 105 104 103 102 102 103 104 103 103 104 104 104 103 103 103 103 102 101 100 98 97 96 96 96 95 94 93 91 90 89 88 87 86 85 84 82 81 80 78 77 75 73 72 71 70 69 68 66 65 65 65 65 65 65 64 65 67 67 65 62
78 81 84 87 91 93 96 99 102 104 106 108 109 110 111 111 110 108 108 107 106 104 103 102 101 100 100 100 101 102 103 105 107 107 107 106 105 104 103 102 102 101 100 100 98 97 95 94 94 94 94 93 92 91 89 88 87 86 85 83 81 80 78 77 76 74 72 70 69 68 67 65 64 63 62 62 63 63 63 62 60 61 64 65 63 60
84 87 90 92 95 98 101 103 105 107 108 108 108 108 107 106 104 103 103 102 102 100 99 99 99 99 99 100 102 104 105 106 107 108 107 107 106 105 103 101 99 98 97 96 95 94 93 92 93 93 93 93 91 90 89 87 85 83 82 80 79 77 76 75 74 72 70 68 67 66 65 63 62 61 59 59 59 60 61 60 58 58 61 61 60 57
89 92 95 98 100 102 104 106 108 109 108 106 104 103 102 101 100 99 99 98 98 98 98 99 100 101 102 103 103 104 105 105 105 105 105 104 103 102 100 98 96 95 94 93 93 92 91 91 91 91 92 92 91 89 88 85 82 80 78 76 75 74 73 73 72 70 68 66 65 64 63 62 60 59 58 57 57 57 58 57 56 57 58 57 56 54
94 97 100 102 105 106 107 108 108 107 105 103 101 100 99 99 99 98 98 98 98 98 99 101 102 103 104 104 104 103 103 102 102 101 101 99 98 97 95 94 93 92 92 92 91 91 90 91 90 90 90 90 89 88 86 84 81 77 75 73 72 71 70 70 69 67 65 64 62 60 59 59 58 56 55 54 54 54 55 55 54 54 55 53 52 51
99 101 103 106 107 107 107 106 104 103 102 101 100 99 99 99 99 99 99 99 100 100 101 101 102 102 102 102 102 101 101 99 98 98 97 96 94 92 91 90 90 91 91 91 90 90 90 90 90 89 88 87 86 85 83 82 79 76 74 72 70 69 68 68 66 64 62 61 59 57 55 55 55 53 52 51 50 50 50 51 51 51 50 49 48 48
102 104 105 106 106 105 103 101 100 100 99 99 98 98 98 98 99 99 99 99 100 100 100 101 101 101 101 101 100 99 98 97 95 94 93 92 90 88 88 88 88 89 90 90 90 89 89 88 88 87 85 84 82 81 79 78 76 74 72 70 68 67 67 66 64 62 60 59 57 55 53 52 51 51 49 48 47 47 47 47 47 47 46 45 45 45
104 104 103 103 101 100 98 97 97 97 97 97 96 96 96 96 97 98 98 98 99 99 100 100 101 100 100 99 97 96 94 94 92 91 90 89 88 87 86 87 87 88 89 90 90 89 88 86 85 83 81 80 78 77 76 75 74 72 70 69 67 67 67 66 63 61 59 57 55 53 51 49 48 48 47 45 44 44 44 44 43 43 43 42 42 43
102 100 98 97 96 96 95 94 93 93 93 94 94 94 94 95 96 97 97 98 98 99 99 99 99 99 97 95 94 93 92 91 90 89 89 88 87 86 86 86 87 88 89 89 88 87 86 84 82 80 78 77 75 74 73 72 72 71 70 68 66 65 65 64 63 61 59 56 54 52 50 48 46 45 45 44 42 42 43 42 40 40 40 40 40 39
97 95 94 93 92 92 91 90 89 89 89 90 91 92 93 94 95 96 97 97 98 98 97 97 96 96 95 94 92 91 90 89 88 88 88 88 87 86 86 86 86 87 88 87 85 84 83 81 79 78 76 76 74 73 72 71 71 70 69 66 65 64 63 62 61 60 58 55 53 51 49 47 45 43 42 42 40 40 41 41 39 38 38 38 37 37
92 91 90 89 88 88 88 88 87 88 88 89 90 91 92 93 95 96 96 96 96 96 96 95 94 94 93 92 91 89 88 87 87 87 87 87 87 86 86 86 86 86 86 85 83 80 79 78 76 75 75 74 74 73 72 71 69 68 66 65 64 62 61 59 59 58 57 54 52 50 48 46 44 42 41 40 39 38 38 39 38 36 36 36 35 34
Wind_Direction
272 273 273 274 274 274 274 273 271 271 274 277 277 275 273 271 271 272 273 273 273 275 277 278 281 283 284 285 287 288 289 289 289 289 290 290 290 290 289 288 289 289 289 288 287 287 288 289 290 290 290 290 290 290 291 291 292 292 293 293 292 291 291 291 291 291 290 290 290 291 291 291 291 291 291 291 291 292 292 292 292 292 292 291 291 291
270 270 272 273 273 273 272 273 274 275 277 278 276 273 270 268 268 271 274 275 277 279 280 281 283 284 284 285 286 287 287 288 289 290 290 290 290 289 288 289 290 290 290 289 289 289 289 290 290 291 291 291 291 291 292 292 292 293 293 292 291 290 290 290 290 290 290 291 291 291 291 291 291 291 291 291 291 291 292 292 292 292 292 292 291 291
269 268 270 272 274 274 274 273 275 277 277 275 272 270 268 269 270 273 275 277 279 281 282 283 284 285 285 285 286 286 288 289 290 290 290 290 290 289 289 290 290 291 291 290 290 291 291 291 291 291 291 291 291 292 292 292 293 292 292 290 290 290 290 290 290 291 291 291 291 291 291 291 291 290 290 291 291 291 292 292 292 292 292 292 292 292
267 267 269 271 272 273 272 272 273 273 272 271 269 269 271 273 274 275 277 278 280 281 282 283 284 284 284 285 286 287 289 289 289 290 290 290 289 289 290 290 291 291 291 291 291 291 291 290 290 290 290 291 291 292 292 292 291 290 290 290 291 291 291 291 291 291 291 291 291 291 291 290 290 290 291 291 291 291 292 292 291 292 292 292 293 293
265 267 269 271 272 271 271 270 270 268 267 267 268 269 271 273 275 276 277 278 280 281 282 283 282 282 284 285 287 288 288 288 289 289 290 290 289 290 290 290 290 290 290 290 290 290 290 290 290 290 290 291 291 291 291 290 289 289 290 291 292 292 292 292 292 292 291 291 291 291 291 290 291 291 291 291 291 291 291 292 292 292 293 293 294 294
266 267 268 269 269 269 268 268 268 268 267 268 269 270 272 274 275 277 278 279 281 282 282 282 282 283 285 286 287 287 288 288 288 288 288 288 288 289 289 289 289 289 290 290 290 290 290 290 290 290 291 291 290 290 289 289 290 291 291 292 292 292 292 292 292 291 291 291 291 291 291 291 291 291 291 291 291 292 292 292 293 293 293 294 294 294
265 266 265 265 264 265 266 266 268 269 270 271 272 273 274 276 277 278 279 280 281 281 282 283 283 285 286 287 287 287 287 288 288 287 287 287 288 289 289 289 290 290 290 290 290 290 290 290 290 290 290 290 290 289 290 290 291 292 292 292 292 292 292 292 292 292 292 292 292 292 292 291 291 291 292 292 293 293 293 293 294 294 294 294 294 294
265 265 265 264 265 266 267 267 268 269 270 272 273 275 276 277 278 278 279 279 280 282 283 284 285 286 287 288 289 289 288 288 287 287 287 288 289 289 289 289 289 290 290 290 290 290 290 290 289 289 289 289 289 290 290 291 292 292 292 292 292 292 292 292 293 293 292 292 292 292 292 292 292 292 292 293 293 293 294 294 294 294 294 294 294 293
265 266 266 266 267 268 268 269 270 271 272 273 274 276 276 277 277 278 279 280 282 283 285 286 287 288 289 289 289 289 288 288 287 287 288 289 289 289 289 289 290 290 290 289 289 289 289 289 288 288 288 289 290 290 291 292 292 292 292 292 293 293 293 293 293 293 293 293 293 293 293 293 293 293 293 293 293 293 294 294 294 294 294 294 294 294
266 267 267 268 269 270 270 271 272 273 274 274 275 276 276 277 278 279 281 283 284 285 287 288 289 290 290 289 288 288 288 288 288 288 289 289 289 289 289 290 290 289 288 288 288 287 288 288 288 288 288 289 290 290 291 292 292 292 292 293 293 293 293 293 293 294 294 294 294 293 293 293 293 293 293 293 294 294 294 294 294 294 294 294 294 294
268 269 270 270 271 271 272 273 273 274 274 274 275 277 278 279 280 282 284 285 286 287 288 289 289 290 289 289 289 289 289 289 289 289 289 288 288 288 289 288 287 286 286 286 286 286 287 287 287 288 289 289 290 291 291 291 292 292 292 293 293 293 293 293 293 293 293 294 293 293 293 293 293 293 293 294 294 294 294 295 295 294 294 294 294 294
270 271 272 273 273 272 272 273 273 273 274 275 277 278 279 281 282 284 286 287 288 289 289 289 289 289 289 289 290 290 289 289 289 288 287 287 287 287 287 285 284 283 284 284 285 286 286 287 287 288 289 290 290 290 290 291 291 291 292 292 292 292 292 293 293 293 293 294 294 293 293 293 293 293 294 294 294 294 294 294 294 294 294 294 294 294
273 274 275 274 274 274 274 274 275 275 276 277 279 280 282 283 285 287 288 288 289 289 290 289 289 289 289 289 290 290 290 289 288 287 286 287 287 286 284 282 282 282 283 284 285 285 286 287 288 289 290 290 290 290 290 291 291 291 292 292 292 292 293 293 294 294 294 294 294 294 294 294 294 294 294 294 294 294 294 294 294 294 294 294 294 294
277 277 278 278 277 278 278 278 279 280 281 282 283 284 285 286 287 288 288 288 289 289 290 290 290 290 290 290 290 290 290 289 288 287 287 287 285 283 281 281 282 283 284 285 285 286 287 288 289 289 290 290 290 290 291 291 292 292 292 292 292 292 293 293 293 294 294 294 294 294 293 293 294 294 294 294 294 294 294 294 294 294 294 294 294 294
279 279 280 281 281 281 282 282 283 283 284 285 285 286 287 287 288 288 288 288 289 289 290 289 289 289 289 289 289 289 289 289 288 288 288 286 284 282 282 283 284 286 286 287 287 288 288 289 290 290 290 291 291 291 292 292 292 292 292 292 292 292 292 293 293 293 293 293 293 293 293 294 294 294 295 295 295 295 295 295 295 295 294 294 293 293
282 280 280 281 282 283 283 284 285 285 286 286 287 287 287 288 289 290 290 290 290 290 289 289 288 288 288 289 289 289 289 288 288 288 287 285 284 283 284 285 286 287 287 288 288 289 289 290 291 291 291 291 291 291 291 291 291 291 291 291 291 292 292 292 292 293 293 293 293 294 294 294 294 294 294 294 294 295 295 295 295 295 295 294 293 293
286 284 283 283 283 284 285 285 286 286 286 287 287 287 288 289 289 290 290 290 290 290 289 288 288 288 288 288 288 288 288 287 287 286 285 284 284 285 286 286 287 287 288 288 289 289 290 290 290 290 290 290 291 291 291 291 291 291 291 291 291 291 292 293 293 293 294 294 294 294 295 294 294 294 294 294 294 294 294 295 295 295 295 294 293 293
289 288 287 286 286 286 287 287 287 287 288 288 289 289 289 290 290 289 289 289 289 290 290 289 289 289 289 288 288 287 287 286 285 284 283 284 284 285 286 286 287 287 288 288 288 289 289 289 289 289 290 290 291 291 291 291 291 291 292 292 292 293 293 294 294 294 294 295 295 295 295 295 294 294 294 294 294 294 294 294 294 294 294 293 293 292
292 290 289 289 289 289 289 289 290 290 290 290 291 291 291 290 290 290 289 289 289 290 290 290 289 290 290 289 288 287 286 285 284 283 284 284 284 285 285 286 286 287 287 287 288 289 289 289 289 290 291 291 291 291 292 292 293 293 293 294 294 294 294 294 294 294 295 295 295 295 295 295 295 295 295 295 295 294 293 293 292 292 292 292 291 291
293 292 291 290 290 290 290 290 291 291 291 291 291 291 291 291 291 291 291 291 291 291 291 290 289 289 290 289 288 287 286 285 284 284 284 284 284 285 285 286 287 287 288 288 289 289 289 290 290 291 292 292 292 293 293 294 294 294 294 294 294 295 295 295 295 295 295 295 295 295 295 295 295 295 295 295 294 293 293 292 291 291 290 290 290 290
293 293 291 290 290 290 290 291 291 292 292 292 292 292 292 292 292 292 292 293 293 293 292 291 289 289 288 288 287 286 285 285 284 284 284 285 286 286 287 287 288 289 289 290 290 290 290 291 292 292 293 293 293 293 294 294 294 294 295 295 296 296 296 296 296 296 296 296 295 295 295 294 294 293 293 293 292 292 292 291 291 290 290 289 289 288
294 294 293 292 292 292 293 293 293 293 293 292 292 292 291 291 291 292 292 293 293 293 292 290 289 288 287 287 286 286 285 285 285 285 286 287 287 287 288 288 289 289 290 290 290 291 291 292 292 292 292 293 293 294 294 295 295 296 296 297 297 297 297 297 297 296 296 295 295 294 293 293 292 292 291 291 291 291 291 291 290 290 289 288 288 287
296 296 296 295 295 294 294 294 294 294 293 293 293 293 292 292 292 292 292 293 293 293 292 291 290 289 288 288 288 287 287 286 286 287 287 287 287 287 288 288 289 290 290 290 291 291 292 292 292 293 294 294 295 295 296 296 297 297 297 297 297 297 297 296 296 295 295 294 294 293 293 292 292 291 291 290 290 290 289 289 289 289 289 288 288 287
298 298 298 298 297 296 296 295 295 295 294 294 294 294 294 294 294 294 294 294 294 293 293 293 293 292 291 291 290 289 289 289 289 288 288 288 288 288 289 290 290 290 291 291 292 292 293 294 294 295 296 296 297 297 297 298 298 297 297 297 296 296 295 295 294 294 294 293 293 293 292 292 291 291 290 290 290 289 289 289 289 289 288 288 288 287
300 300 300 299 298 298 297 297 296 296 296 296 295 294 294 295 295 295 295 295 294 293 292 292 292 292 292 292 291 291 290 291 291 290 290 290 290 291 291 292 292 292 293 293 294 295 295 296 297 297 298 298 298 298 298 297 297 297 296 296 296 295 295 295 294 294 293 293 293 292 292 291 291 291 290 290 290 289 289 289 288 288 287 287 287 286
302 302 302 300 299 298 298 297 297 297 297 296 295 294 294 294 294 294 293 293 292 292 291 291 291 292 292 293 292 292 292 292 292 293 293 293 294 294 295 295 295 295 296 296 296 297 297 297 297 298 298 298 297 297 297 296 296 296 296 296 296 295 295 294 294 293 293 293 292 292 292 291 291 291 290 290 289 289 289 288 287 287 287 286 286 286
304 304 303 302 301 300 299 299 298 297 296 295 294 293 293 292 293 293 293 293 292 292 293 292 292 292 292 293 293 294 294 294 294 294 295 295 296 296 296 296 296 296 296 296 297 297 297 297 297 297 297 297 297 297 297 297 297 296 296 295 295 294 294 293 293 293 292 292 292 291 291 290 290 290 289 289 289 288 288 288 287 287 287 287 286 286
305 305 305 303 302 302 302 301 300 299 297 296 295 294 294 294 294 294 294 294 294 293 294 294 294 294 294 294 294 294 294 295 295 295 295 295 295 295 295 295 295 296 296 296 297 297 298 298 298 298 297 297 297 297 297 297 296 296 295 295 294 293 293 292 292 292 291 291 291 290 290 290 290 290 289 289 289 288 288 288 287 287 287 287 287 286
306 306 306 305 304 304 304 302 301 300 299 298 297 296 296 296 296 296 296 296 296 296 296 296 296 296 296 296 296 295 295 295 295 295 294 295 295 295 296 296 297 297 297 297 298 298 298 298 298 298 298 297 296 296 295 295 294 294 294 294 294 293 293 293 292 292 291 291 291 291 291 290 290 290 290 290 289 289 288 288 288 288 287 287 286 285
307 307 307 306 305 305 305 304 303 302 301 300 299 299 299 299 299 299 299 299 299 298 298 298 297 298 297 297 297 297 296 296 296 296 296 297 298 298 298 298 298 298 298 298 298 298 298 298 298 297 296 296 295 295 294 294 294 294 294 294 294 293 293 293 293 293 292 292 291 291 291 291 291 291 290 290 290 290 289 289 289 288 287 286 285 285
308 307 307 305 305 304 304 304 303 302 302 301 301 301 301 301 300 300 300 299 299 299 299 299 299 299 299 298 298 298 298 298 298 298 298 299 299 298 298 297 297 298 298 298 298 298 298 297 297 296 296 296 296 296 296 296 296 296 295 295 294 294 294 293 293 293 293 293 293 292 292 292 292 292 292 291 291 290 290 290 289 288 288 287 286 285
308 307 306 305 303 303 303 302 302 302 302 301 301 301 301 301 300 300 299 299 299 299 299 299 299 299 298 298 299 299 299 299 299 298 298 298 298 298 298 298 298 298 298 298 298 298 297 297 297 297 297 297 298 298 297 297 297 297 296 296 295 295 295 295 295 295 295 295 295 294 294 294 293 293 292 291 291 291 290 290 289 288 287 287 286 285
308 307 306 305 304 304 304 304 303 302 302 301 301 301 301 301 300 300 301 301 300 299 299 299 299 299 298 298 298 298 297 298 298 298 298 298 298 298 298 298 299 299 299 299 299 298 298 298 298 299 299 298 298 298 298 298 298 298 297 297 297 297 297 297 297 296 296 295 295 294 294 294 293 292 292 291 290 290 289 289 288 287 287 286 286 285
309 308 308 307 306 306 306 305 305 304 303 302 302 302 302 302 301 301 301 301 300 300 300 300 299 299 299 299 299 298 298 299 298 298 298 299 299 299 299 300 301 301 301 301 300 300 300 300 300 300 300 300 300 300 300 300 300 299 299 299 298 298 298 298 297 297 296 296 295 294 294 293 293 292 291 290 290 289 288 288 287 287 286 286 285 285
312 310 309 308 307 307 306 306 305 305 304 304 304 304 303 302 301 302 302 301 301 300 301 301 300 300 300 300 300 300 300 300 300 300 300 301 302 302 303 303 303 303 302 302 302 302 302 302 302 302 302 302 302 302 302 302 301 301 301 300 300 300 299 299 298 298 297 296 295 295 294 293 292 291 290 289 289 288 287 287 286 286 285 285 284 284
312 311 310 309 308 308 307 306 306 305 304 304 304 304 303 302 302 302 302 302 301 301 301 301 301 301 301 301 301 301 301 302 302 303 304 305 306 306 306 305 305 304 304 304 304 304 304 304 304 304 304 303 303 303 303 303 303 302 302 301 301 301 300 300 299 298 297 296 295 294 293 292 292 291 290 289 288 287 287 286 286 285 284 284 284 283
313 311 311 310 309 308 307 306 306 305 304 304 304 303 303 302 302 302 302 301 301 301 302 302 302 302 302 303 303 304 304 305 306 306 307 307 307 307 306 306 306 306 306 306 307 306 306 306 306 305 305 305 304 304 304 304 303 303 302 302 301 301 301 300 299 298 297 296 295 294 293 292 291 291 290 289 288 288 287 286 286 285 284 284 283 283
313 311 311 310 309 308 307 306 306 305 305 305 304 304 303 303 303 304 304 304 304 304 304 304 304 305 305 305 306 307 307 307 308 307 307 307 306 306 306 306 307 307 307 307 307 307 307 307 306 306 305 305 305 305 305 304 304 303 303 302 302 302 301 301 300 299 298 297 296 295 294 293 292 291 290 290 289 288 287 286 285 284 284 283 283 282
313 312 311 310 309 308 308 307 306 306 305 305 306 306 306 306 306 306 307 307 307 307 307 307 307 307 307 308 308 308 308 308 307 307 306 306 306 306 306 307 307 307 308 308 308 308 308 307 307 306 306 306 306 306 306 305 305 304 304 303 303 303 302 301 300 299 298 297 297 296 295 294 293 292 291 290 289 287 286 284 284 284 284 283 283 282
313 311 311 310 309 309 308 308 308 308 308 308 308 308 308 308 308 308 308 308 308 308 308 308 308 308 308 308 309 309 309 309 309 308 308 308 308 308 308 308 309 309 309 309 308 309 309 308 308 307 307 307 307 307 307 306 306 305 305 304 304 304 303 301 300 299 298 298 297 296 295 294 294 293 292 290 289 287 286 284 283 283 283 284 283 282
311 311 310 310 310 310 310 310 310 310 310 310 310 309 309 309 309 309 309 309 309 309 309 309 309 309 309 310 310 311 311 311 311 311 311 310 310 310 311 311 311 311 310 310 310 310 310 309 309 308 308 308 308 308 308 308 307 307 306 306 305 304 303 302 301 300 300 299 298 297 296 295 294 294 293 291 290 288 287 285 284 284 283 283 284 283
311 311 311 311 311 311 311 311 310 310 310 310 310 310 309 309 309 309 309 309 309 309 309 310 310 311 311 312 313 313 313 313 313 313 313 313 312 313 313 313 312 312 311 311 311 311 311 310 310 310 309 310 310 309 309 309 309 308 308 307 307 306 305 304 303 302 301 301 300 299 297 296 296 295 294 292 290 289 288 286 285 284 283 283 284 284
313 313 313 312 312 312 311 311 310 310 310 310 310 310 309 309 309 309 309 309 310 311 311 312 313 314 314 315 315 315 314 314 314 314 314 314 313 314 314 313 313 312 312 311 311 311 312 311 311 311 311 311 311 311 310 310 310 310 309 309 308 307 306 305 304 304 304 303 302 301 300 299 298 296 295 293 291 290 288 288 286 284 282 282 283 284
314 313 313 312 312 312 312 311 311 311 311 311 310 310 310 310 310 310 311 312 313 314 315 316 316 317 316 316 316 315 314 314 314 314 314 313 313 313 313 313 313 313 312 312 312 312 312 312 312 312 312 312 312 312 311 311 311 311 310 310 309 308 308 307 306 306 306 305 304 303 302 301 299 298 296 294 292 290 289 288 286 283 282 283 283 283
314 313 313 313 312 312 312 312 312 311 312 312 312 312 312 312 313 314 315 316 317 317 318 318 318 317 316 316 315 315 315 314 314 313 313 313 313 313 314 314 314 313 313 313 313 313 314 314 314 313 313 313 313 313 313 313 312 312 312 311 310 310 309 308 307 307 307 306 305 304 303 302 300 298 297 295 293 290 289 288 285 283 283 283 282 281
314 313 313 313 312 312 313 312 313 313 313 314 314 314 315 315 316 317 318 318 319 319 319 318 317 316 315 315 315 315 315 314 314 314 313 314 314 315 315 315 314 314 314 314 314 315 315 315 315 315 314 314 314 314 314 313 313 313 313 312 311 311 310 308 308 308 308 307 306 305 304 302 301 299 297 295 293 291 289 287 285 283 283 282 280 278
313 313 313 313 313 313 313 314 314 314 314 315 316 316 317 318 318 318 319 319 319 318 318 317 316 316 315 315 316 316 316 315 315 315 315 315 315 316 316 316 316 316 316 316 316 316 316 316 315 315 315 315 314 314 314 314 314 314 313 313 313 313 311 310 310 310 310 309 309 308 306 305 303 301 299 297 295 292 289 287 285 284 283 280 278 276
313 313 313 313 313 314 314 315 315 316 316 317 317 318 318 318 318 318 318 318 318 318 318 317 317 316 316 316 316 317 316 316 316 316 316 316 317 317 317 317 317 317 317 317 317 317 317 316 316 316 316 315 315 315 315 315 315 315 315 315 316 315 314 313 313 313 312 312 311 310 308 307 305 303 301 299 297 294 291 289 287 285 283 279 277 275
313 313 314 314 314 315 316 316 317 317 317 317 317 318 318 318 318 318 318 319 319 319 318 318 317 317 317 317 318 318 318 318 318 318 318 318 318 319 319 319 319 319 318 318 317 317 317 317 317 317 317 316 316 316 316 317 317 317 317 317 317 316 315 315 315 315 314 313 313 311 310 308 307 305 303 301 299 297 294 291 289 287 284 281 278 276
314 315 315 316 316 317 317 317 317 317 317 317 317 318 318 318 318 319 319 320 319 319 318 318 318 318 319 319 320 320 320 320 320 319 319 319 320 320 321 321 321 320 319 318 318 318 318 318 318 319 318 318 318 319 319 319 319 318 318 318 318 317 316 316 316 315 315 314 314 313 312 310 309 307 305 302 301 299 296 293 292 289 286 283 280 277
316 316 317 317 317 317 317 317 318 318 318 318 318 319 319 320 320 320 320 320 320 320 320 319 320 320 321 321 321 321 321 321 321 321 321 321 321 322 322 322 321 320 319 318 319 319 319 319 320 320 321 321 321 321 321 320 319 319 319 319 319 318 318 317 316 316 315 315 315 314 313 312 311 309 307 304 302 300 296 294 294 292 288 285 282 279